, CA

(GMT )
Point Mugu

Weather History for KNTD - October, 2007

Change the Weather History Date:

Sunday, October 21, 2007

  Actual Average Record
Temperature  
Mean Temperature 68 °F -  
Max Temperature 81 °F 67 °F 90 °F (2015)
Min Temperature 55 °F 51 °F 46 °F (2006)
Cooling Degree Days 2    
Growing Degree Days 18 (Base 50)    
Moisture  
Dew Point 18 °F    
Average Humidity 16    
Maximum Humidity 49    
Minimum Humidity 8    
Precipitation  
Precipitation 0.00 in - - ()
Sea Level Pressure  
Sea Level Pressure 29.99 in    
Wind  
Wind Speed 20 mph (NE)    
Max Wind Speed 33 mph    
Max Gust Speed 56 mph    
Visibility 6 miles    
Events      
Averages and records for this station are not official NWS values.
T = Trace of Precipitation, MM = Missing Value Source: NWS Daily Summary

Daily Weather History Graph

Daily Weather History Graph

Search for Another Location

Airport or City:

Trip Planner

Search our weather history database for the weather conditions in past years. The results will help you decide how hot, cold, wet, or windy it might be!

Date:

Astronomy

Oct. 21, 2007 Rise Set
Actual Time 7:06 AM PDT 6:15 PM PDT
Civil Twilight 6:40 AM PDT 6:40 PM PDT
Nautical Twilight 6:11 AM PDT 7:09 PM PDT
Astronomical Twilight 5:42 AM PDT 7:38 PM PDT
Moon 3:38 PM PDT (10/21) 1:53 AM PDT (10/21)
Length of Visible Light 11h 59m
Length of Day
11h 08m
Waxing Gibbous, 75% of the Moon is Illuminated
Oct 21
Waxing Gibbous
Oct 25
Full
Nov 1
Last Quarter
Nov 9
New
Nov 17
First Quarter

Hourly Weather History & Observations

Time (PDT) Temp. Dew Point Humidity Pressure Visibility Wind Dir Wind Speed Gust Speed Precip Events Conditions
12:56 AM 61.0 °F 35.1 °F 38% 29.88 in 7.0 mi North 6.9 mph - N/A   Clear
1:11 AM 57.2 °F 37.4 °F 48% 29.87 in 7.0 mi North 8.1 mph - N/A   Clear
1:56 AM 55.9 °F 37.0 °F 49% 29.88 in 7.0 mi NW 8.1 mph - N/A   Clear
2:56 AM 68.0 °F 30.0 °F 24% 29.87 in 10.0 mi NE 25.3 mph 38.0 mph N/A   Clear
3:56 AM 68.0 °F 30.0 °F 24% 29.86 in 10.0 mi NE 28.8 mph 41.4 mph N/A   Clear
4:56 AM 68.0 °F 26.1 °F 21% 29.89 in 10.0 mi NE 24.2 mph 39.1 mph N/A   Clear
5:56 AM 68.0 °F 21.0 °F 17% 29.90 in 7.0 mi NE 25.3 mph 44.9 mph N/A   Clear
6:56 AM 66.9 °F 19.0 °F 16% 29.94 in 7.0 mi NE 32.2 mph 47.2 mph N/A   Clear
7:56 AM 68.0 °F 15.1 °F 13% 29.96 in 7.0 mi NE 23.0 mph 40.3 mph N/A   Clear
8:56 AM 70.0 °F 16.0 °F 13% 29.99 in 10.0 mi NE 25.3 mph 41.4 mph N/A   Clear
9:56 AM 72.0 °F 17.1 °F 12% 30.02 in 7.0 mi NE 28.8 mph 43.7 mph N/A   Clear
10:56 AM 73.9 °F 12.9 °F 10% 30.03 in 10.0 mi NE 33.4 mph 56.4 mph N/A   Clear
11:56 AM 75.9 °F 15.1 °F 10% 30.04 in 9.0 mi NE 26.5 mph 46.0 mph N/A   Clear
12:56 PM 78.1 °F 14.0 °F 9% 30.03 in 7.0 mi NE 27.6 mph 39.1 mph N/A   Smoke
1:56 PM 80.1 °F 12.0 °F 8% 30.01 in 7.0 mi ENE 28.8 mph 41.4 mph N/A   Partly Cloudy
2:56 PM 80.1 °F 14.0 °F 8% 30.01 in 4.0 mi NE 28.8 mph 38.0 mph N/A   Haze
3:56 PM 77.0 °F 10.0 °F 8% 30.01 in 3.0 mi NE 25.3 mph 38.0 mph N/A   Smoke
4:56 PM 77.0 °F 10.9 °F 8% 30.03 in 3.0 mi NE 18.4 mph 33.4 mph N/A   Smoke
5:56 PM 75.9 °F 10.0 °F 8% 30.03 in 4.0 mi NE 20.7 mph 33.4 mph N/A   Smoke
6:56 PM 75.0 °F 12.0 °F 9% 30.04 in 4.0 mi NE 23.0 mph 39.1 mph N/A   Smoke
7:56 PM 75.0 °F 12.0 °F 9% 30.08 in 4.0 mi NE 21.9 mph 36.8 mph N/A   Smoke
8:03 PM 73.4 °F 12.2 °F 10% 30.07 in 4.0 mi NE 21.9 mph 33.4 mph N/A   Smoke
8:56 PM 73.9 °F 14.0 °F 10% 30.08 in 4.0 mi NE 17.3 mph 29.9 mph N/A   Smoke
9:56 PM 75.0 °F 12.9 °F 9% 30.11 in 4.0 mi NE 21.9 mph 38.0 mph N/A   Smoke
10:56 PM 75.0 °F 12.0 °F 9% 30.11 in 4.0 mi NE 21.9 mph 46.0 mph N/A   Smoke
11:56 PM 73.9 °F 14.0 °F 10% 30.11 in 9.0 mi NE 23.0 mph 39.1 mph N/A   Smoke